When you browse on this site, cookies collect data to enhance your experience and personalize the content and advertising you see.
Visit our Privacy Policy to learn more. By continuing to use the site, you agree to this use of cookies and data.
  • In Österreich
  • Länderverzeichnis
  • Für 7 Tage
  • Wassertemperatur
  • Wetterkarte
  • News
  • Widgets
  • user-avatar
    Anmelden

    Stündliche Wetter Staunton

    Heute, 13 November, Mittwoch

    Zeit Temperatur Niederschläge Wind Luftdruck Luftfeuchtigkeit
    00:00 -8°C° 0 mm 2 m/S 727 mmHg 62%
    01:00 -7°C° 0 mm 1 m/S 727 mmHg 62%
    02:00 -8°C° 0 mm 1 m/S 727 mmHg 62%
    03:00 -8°C° 0 mm 1 m/S 727 mmHg 62%
    04:00 -8°C° 0 mm 1 m/S 727 mmHg 63%
    05:00 -8°C° 0 mm 1 m/S 728 mmHg 63%
    06:00 -9°C° 0 mm 1 m/S 728 mmHg 63%
    07:00 -9°C° 0 mm 1 m/S 729 mmHg 63%
    08:00 -7°C° 0 mm 1 m/S 729 mmHg 53%
    09:00 -3°C° 0 mm 1 m/S 730 mmHg 43%
    10:00 -1°C° 0 mm 1 m/S 730 mmHg 32%
    11:00 0°C° 0 mm 1 m/S 730 mmHg 29%
    12:00 +1°C° 0 mm 1 m/S 729 mmHg 26%
    13:00 +3°C° 0 mm 1 m/S 729 mmHg 22%
    14:00 +3°C° 0 mm 1 m/S 729 mmHg 24%
    15:00 +1°C° 0 mm 2 m/S 728 mmHg 25%
    16:00 +1°C° 0 mm 2 m/S 728 mmHg 26%
    17:00 -1°C° 0 mm 2 m/S 728 mmHg 32%
    18:00 -1°C° 0 mm 1 m/S 728 mmHg 37%
    19:00 -3°C° 0 mm 1 m/S 729 mmHg 42%
    20:00 -3°C° 0 mm 1 m/S 728 mmHg 44%
    21:00 -4°C° 0 mm 1 m/S 728 mmHg 46%
    22:00 -4°C° 0 mm 1 m/S 728 mmHg 48%
    23:00 -4°C° 0 mm 1 m/S 728 mmHg 50%

    Morgen, 14 November, Donnerstag

    Zeit Temperatur Niederschläge Wind Luftdruck Luftfeuchtigkeit
    00:00 -6°C° 0 mm 1 m/S 728 mmHg 53%
    01:00 -6°C° 0 mm 1 m/S 728 mmHg 55%
    02:00 -6°C° 0 mm 1 m/S 728 mmHg 59%
    03:00 -7°C° 0 mm 2 m/S 728 mmHg 62%
    04:00 -7°C° 0 mm 2 m/S 727 mmHg 66%
    05:00 -7°C° 0 mm 2 m/S 728 mmHg 68%
    06:00 -7°C° 0 mm 2 m/S 728 mmHg 70%
    07:00 -7°C° 0 mm 2 m/S 728 mmHg 72%
    08:00 -5°C° 0 mm 2 m/S 728 mmHg 62%
    09:00 -3°C° 0 mm 2 m/S 729 mmHg 52%
    10:00 0°C° 0 mm 3 m/S 729 mmHg 42%
    11:00 +1°C° 0 mm 3 m/S 729 mmHg 39%
    12:00 +3°C° 0 mm 3 m/S 728 mmHg 36%
    13:00 +5°C° 0 mm 3 m/S 728 mmHg 33%
    14:00 +5°C° 0 mm 2 m/S 727 mmHg 37%
    15:00 +4°C° 0 mm 2 m/S 727 mmHg 41%
    16:00 +4°C° 0 mm 2 m/S 726 mmHg 46%
    17:00 +2°C° 0 mm 2 m/S 726 mmHg 50%
    18:00 +2°C° 0 mm 1 m/S 727 mmHg 54%
    19:00 0°C° 0 mm 1 m/S 727 mmHg 58%
    20:00 0°C° 0 mm 1 m/S 727 mmHg 58%
    21:00 0°C° 0 mm 1 m/S 727 mmHg 58%
    22:00 0°C° 0 mm 1 m/S 727 mmHg 58%
    23:00 0°C° 0 mm 1 m/S 727 mmHg 58%

    übermorgen, 15 November, Freitag

    Zeit Temperatur Niederschläge Wind Luftdruck Luftfeuchtigkeit
    00:00 0°C° 0 mm 1 m/S 727 mmHg 58%
    01:00 0°C° 0 mm 1 m/S 726 mmHg 58%
    02:00 +1°C° 0 mm 1 m/S 726 mmHg 58%
    03:00 +1°C° 0 mm 1 m/S 726 mmHg 57%
    04:00 +1°C° 0 mm 1 m/S 726 mmHg 56%
    05:00 +2°C° 0 mm 1 m/S 726 mmHg 60%
    06:00 +2°C° 0 mm 1 m/S 726 mmHg 61%
    07:00 +2°C° 0 mm 1 m/S 726 mmHg 62%
    08:00 +4°C° 0 mm 1 m/S 726 mmHg 59%
    09:00 +5°C° 0 mm 1 m/S 726 mmHg 55%
    10:00 +7°C° 0 mm 1 m/S 726 mmHg 52%
    11:00 +9°C° 0 mm 1 m/S 726 mmHg 49%
    12:00 +11°C° 0 mm 1 m/S 725 mmHg 46%
    13:00 +13°C° 0 mm 2 m/S 725 mmHg 43%
    14:00 +12°C° 0 mm 2 m/S 724 mmHg 47%
    15:00 +10°C° 0 mm 2 m/S 724 mmHg 51%
    16:00 +9°C° 0 mm 2 m/S 724 mmHg 56%
    17:00 +7°C° 0 mm 2 m/S 724 mmHg 61%
    18:00 +6°C° 0 mm 2 m/S 724 mmHg 66%
    19:00 +4°C° 0 mm 2 m/S 725 mmHg 71%
    20:00 +3°C° 0 mm 2 m/S 725 mmHg 77%
    21:00 +2°C° 0 mm 2 m/S 725 mmHg 82%
    22:00 +1°C° 0 mm 2 m/S 725 mmHg 88%
    23:00 -1°C° 0 mm 2 m/S 725 mmHg 89%

    16 November, Samstag

    Zeit Temperatur Niederschläge Wind Luftdruck Luftfeuchtigkeit
    00:00 -1°C° 0 mm 3 m/S 725 mmHg 91%
    01:00 -2°C° 0 mm 3 m/S 724 mmHg 92%
    02:00 -2°C° 0 mm 3 m/S 724 mmHg 92%
    03:00 -2°C° 0 mm 2 m/S 725 mmHg 91%
    04:00 -3°C° 0 mm 2 m/S 725 mmHg 91%
    05:00 -3°C° 0 mm 2 m/S 725 mmHg 92%
    06:00 -4°C° 0 mm 2 m/S 725 mmHg 92%
    07:00 -4°C° 0 mm 2 m/S 726 mmHg 93%
    08:00 -4°C° 0 mm 3 m/S 726 mmHg 80%
    09:00 -3°C° 0 mm 4 m/S 726 mmHg 67%
    10:00 -2°C° 0 mm 6 m/S 726 mmHg 54%
    11:00 -1°C° 0 mm 5 m/S 726 mmHg 47%
    12:00 0°C° 0 mm 5 m/S 726 mmHg 39%
    13:00 +1°C° 0 mm 5 m/S 726 mmHg 32%
    14:00 +1°C° 0 mm 5 m/S 726 mmHg 33%
    15:00 0°C° 0 mm 5 m/S 725 mmHg 34%
    16:00 -1°C° 0 mm 5 m/S 725 mmHg 34%
    17:00 -2°C° 0 mm 4 m/S 726 mmHg 39%
    18:00 -4°C° 0 mm 4 m/S 726 mmHg 43%
    19:00 -6°C° 0 mm 3 m/S 726 mmHg 48%
    20:00 -6°C° 0 mm 3 m/S 726 mmHg 49%
    21:00 -6°C° 0 mm 3 m/S 726 mmHg 51%
    22:00 -7°C° 0 mm 3 m/S 726 mmHg 52%
    23:00 -6°C° 0 mm 2 m/S 725 mmHg 53%

    17 November, Sonntag

    Zeit Temperatur Niederschläge Wind Luftdruck Luftfeuchtigkeit
    00:00 -6°C° 0 mm 2 m/S 725 mmHg 53%
    01:00 -7°C° 0 mm 2 m/S 725 mmHg 54%
    02:00 -6°C° 0 mm 2 m/S 725 mmHg 53%
    03:00 -6°C° 0 mm 2 m/S 724 mmHg 52%
    04:00 -6°C° 0 mm 2 m/S 724 mmHg 51%
    05:00 -7°C° 0 mm 2 m/S 724 mmHg 52%
    06:00 -7°C° 0 mm 2 m/S 724 mmHg 54%
    07:00 -6°C° 0 mm 1 m/S 724 mmHg 55%
    08:00 -2°C° 0 mm 1 m/S 724 mmHg 52%
    09:00 0°C° 0 mm 1 m/S 724 mmHg 49%
    10:00 +3°C° 0 mm 1 m/S 724 mmHg 46%
    11:00 +5°C° 0 mm 1 m/S 723 mmHg 46%
    12:00 +6°C° 0 mm 1 m/S 723 mmHg 46%
    13:00 +8°C° 0 mm 1 m/S 722 mmHg 46%
    14:00 +7°C° 0 mm 1 m/S 721 mmHg 49%
    15:00 +7°C° 0 mm 1 m/S 721 mmHg 53%
    16:00 +6°C° 0 mm 1 m/S 721 mmHg 56%
    17:00 +4°C° 0 mm 1 m/S 720 mmHg 64%
    18:00 +2°C° 0 mm 1 m/S 720 mmHg 72%
    19:00 0°C° 0 mm 0 m/S 720 mmHg 79%
    20:00 0°C° 0 mm 0 m/S 720 mmHg 79%
    21:00 0°C° 0 mm 0 m/S 720 mmHg 79%
    22:00 0°C° 0 mm 0 m/S 720 mmHg 80%
    23:00 0°C° 0 mm 0 m/S 720 mmHg 82%

    18 November, Montag

    Zeit Temperatur Niederschläge Wind Luftdruck Luftfeuchtigkeit
    00:00 -1°C° 0 mm 0 m/S 719 mmHg 84%
    01:00 -1°C° 0 mm 0 m/S 719 mmHg 86%
    02:00 -1°C° 0 mm 0 m/S 719 mmHg 87%
    03:00 -2°C° 0 mm 0 m/S 719 mmHg 87%
    04:00 -2°C° 0 mm 0 m/S 718 mmHg 88%
    05:00 -2°C° 0 mm 0 m/S 718 mmHg 88%
    06:00 -2°C° 0 mm 0 m/S 719 mmHg 88%
    07:00 -2°C° 0 mm 0 m/S 719 mmHg 88%
    08:00 +2°C° 0 mm 1 m/S 719 mmHg 78%
    09:00 +4°C° 0 mm 1 m/S 719 mmHg 69%
    10:00 +6°C° 0 mm 1 m/S 719 mmHg 59%
    11:00 +7°C° 0 mm 1 m/S 719 mmHg 58%
    12:00 +8°C° 0 mm 1 m/S 719 mmHg 57%
    13:00 +9°C° 0 mm 1 m/S 718 mmHg 55%
    14:00 +9°C° 0 mm 1 m/S 718 mmHg 60%
    15:00 +8°C° 0 mm 1 m/S 718 mmHg 64%
    16:00 +8°C° 0 mm 1 m/S 717 mmHg 69%
    17:00 +6°C° 0 mm 1 m/S 717 mmHg 76%
    18:00 +5°C° 0 mm 1 m/S 717 mmHg 82%
    19:00 +2°C° 0 mm 0 m/S 717 mmHg 89%
    20:00 +2°C° 0 mm 0 m/S 717 mmHg 89%
    21:00 +1°C° 0 mm 0 m/S 718 mmHg 90%
    22:00 +1°C° 0 mm 0 m/S 718 mmHg 90%
    23:00 0°C° 0 mm 0 m/S 718 mmHg 90%
    Mehr zeigen